Location: Holiday Acres Laynes 2 Mobile Home Park
(26.7249°N, 81.8671°W)
Time: 12:33:35
(UTC+00:00)

FUSE - Pass Details

Date: 25 November 2020
Orbit: 742 x 756 km, 25.0° (Epoch: 23 January)

Event Time Altitude Azimuth Distance (km) Brightness Sun altitude
Rises 23:17:50 0° 268° (W) 3,184 8.9 -9.9°
Reaches altitude 10° 23:20:18 10° 267° (W) 2,262 7.8 -10.4°
Maximum altitude 23:25:40 74° 183° (S) 780 4.1 -11.6°
Enters shadow 23:30:19 14° 99° (E) 2,002 5.6 -12.6°
